TimeMDT,TemperatureF,Dew PointF,Humidity,Sea Level PressureIn,VisibilityMPH,Wind Direction,Wind SpeedMPH,Gust SpeedMPH,PrecipitationIn,Events,Conditions,WindDirDegrees,DateUTC
12:53 AM,41.0,27.0,57,29.86,10.0,SW,21.9,31.1,N/A,,Clear,220,2014-03-13 06:53:00
1:53 AM,39.0,27.0,62,29.85,10.0,SW,23.0,-,N/A,,Clear,230,2014-03-13 07:53:00
2:53 AM,39.0,26.1,60,29.84,10.0,SW,19.6,27.6,N/A,,Clear,230,2014-03-13 08:53:00
3:53 AM,39.0,26.1,60,29.81,10.0,SW,19.6,-,N/A,,Clear,220,2014-03-13 09:53:00
4:53 AM,41.0,25.0,53,29.80,10.0,SSW,19.6,-,N/A,,Clear,210,2014-03-13 10:53:00
5:53 AM,42.1,23.0,47,29.81,10.0,SW,15.0,-,N/A,,Mostly Cloudy,230,2014-03-13 11:53:00
6:53 AM,39.9,24.1,53,29.83,10.0,SW,13.8,-,N/A,,Overcast,220,2014-03-13 12:53:00
7:53 AM,39.9,23.0,51,29.83,10.0,SW,10.4,-,N/A,,Overcast,230,2014-03-13 13:53:00
8:53 AM,39.0,25.0,57,29.84,10.0,SW,10.4,-,N/A,,Overcast,220,2014-03-13 14:53:00
9:53 AM,46.0,25.0,44,29.84,10.0,West,20.7,31.1,N/A,,Clear,280,2014-03-13 15:53:00
10:53 AM,45.0,27.0,49,29.87,10.0,NW,18.4,-,N/A,,Mostly Cloudy,320,2014-03-13 16:53:00
11:53 AM,43.0,27.0,53,29.90,10.0,North,16.1,25.3,N/A,,Overcast,10,2014-03-13 17:53:00
12:53 PM,39.9,30.0,68,29.95,10.0,North,16.1,-,0.00,,Overcast,350,2014-03-13 18:53:00
1:53 PM,39.9,27.0,60,29.96,10.0,WNW,9.2,-,N/A,,Overcast,290,2014-03-13 19:53:00
2:53 PM,39.9,26.1,58,29.96,10.0,West,10.4,-,0.00,,Overcast,280,2014-03-13 20:53:00
3:53 PM,43.0,23.0,45,29.94,10.0,WNW,12.7,-,N/A,,Overcast,300,2014-03-13 21:53:00
4:53 PM,45.0,19.9,37,29.93,10.0,WNW,11.5,-,N/A,,Clear,300,2014-03-13 22:53:00
5:53 PM,46.0,21.0,37,29.93,10.0,WNW,13.8,-,N/A,,Clear,290,2014-03-13 23:53:00
6:53 PM,41.0,23.0,49,29.94,10.0,West,6.9,-,N/A,,Clear,270,2014-03-14 00:53:00
7:53 PM,34.0,25.0,70,29.95,10.0,NW,4.6,-,N/A,,Clear,320,2014-03-14 01:53:00
8:53 PM,33.1,24.1,70,29.95,10.0,Calm,Calm,-,N/A,,Clear,0,2014-03-14 02:53:00
9:53 PM,30.0,25.0,82,29.95,10.0,Calm,Calm,-,N/A,,Clear,0,2014-03-14 03:53:00
10:53 PM,28.0,24.1,85,29.96,10.0,South,4.6,-,N/A,,Clear,180,2014-03-14 04:53:00
11:53 PM,28.0,24.1,85,29.96,10.0,Calm,Calm,-,N/A,,Clear,0,2014-03-14 05:53:00